Showing default

BALKAN-1, 62611

Orbit data source: Space-Track

BALKAN-1, 62611 is a payload satellite owned by Endurosat (BG) in SSO that was launched on Tue, 14 Jan 2025 UTC via an FALCON 9 launch vehicle from the Air Force Western Test Range (AFWTR). Payload-class satellites include a variety of spacecraft equipped with specific instruments for various scientific and technological missions. These include communications satellites like Starlink; space stations such as the ISS; scientific satellites like the Hubble; Earth observation satellites from companies like Planet Labs, Umbra, and HawkEye 360; GPS; miniature CubeSats for education and research; and military/defense satellites.

Loading next visibility...
Identifier
62611, 2025-009C
Orbit
SSO
Country
Flag of BGBG / BGR
Related business
Manufacturer
Endurosat
Mission
Operational Commercial Imaging
Bus & Motor
CUBESAT 16U, Unknown motor
Mass
32 kg wet, 32 kg dry
Launch date (UTC)
2025-01-14 (1 year ago)
Launch vehicle
FALCON 9
Launch site
Air Force Western Test Range (AFWTR)
Object type
Payload
Rocket body
Debris
Shape & HBR
Box + 2 Pan, 0.7 m
Radar Cross Section
0.124 m², Medium (>0.1 m² and < 1m²)

Expand to show TLE details & history
Last TLE update: 19 hours ago

TLE from 19 hours ago
0 BALKAN-1
1 62611U 25009C   26171.16353804  .00005385  00000-0  21824-3 0  9990
2 62611  97.3914 250.3616 0005744 336.8969  23.2010 15.25054689 79210
Epoch: 2026-06-20T03:55Z
TLE epoch observation values (Epoch: 2026-06-20T03:55:29.686Z)
Latitude
-0.00002°
Longitude
-76.89419°
Altitude
490.092 km
Speed
7.622 km/s
True Right ascension
16h 41m 26s
True Declination
0° 00' 00"
Sunlit
Object was in full shadow at epoch
Visualization orbit readout
Latitude
Unknown
Longitude
Unknown
Altitude
Unknown
Speed
Unknown
Apparent Right ascension
Unknown
Apparent Declination
Unknown
Sunlit
N/A
Visualization observer readout
Local Sidereal Time
10:18:51
Azimuth
Unknown
Elevation
Unknown
Doppler factor
Unknown
Orbital elements
Apogee altitude
491.523 km
Perigee altitude
483.636 km
Semi-major axis
6,865.717 km
Eccentricity
0.00057
Inclination
97.3914°
RAAN
250.3616°
Arg. of periapsis
336.8969°
True anomaly
23.22695°
Mean anomaly
23.201°
Eccentric anomaly
23.21397°
Mean motion
3.81517 °/min
Orbital period
94.36 mins
BSTAR
0.00021824
Loading maneuver chart data...
Computing Atmospheric mass density...
Loading historical data...
Loading historical data...
Loading historical data...
Loading historical data...
Loading historical data...
Loading historical data...
Loading historical data...

Documentation

Showing up to 5 results
|